Time,TemperatureF,DewpointF,PressureIn,WindDirection,WindDirectionDegrees,WindSpeedMPH,WindSpeedGustMPH,Humidity,HourlyPrecipIn,Conditions,Clouds,dailyrainin,SoftwareType,DateUTC
2013-05-06 00:09:00,61.2,16.0,29.76,ENE,76,5.0,18.0,17,0.00,,,0.00,weatherlink.com 1.10,2013-05-06 06:09:00,
2013-05-06 00:24:00,61.1,16.0,29.76,ESE,120,3.0,12.0,17,0.00,,,0.00,weatherlink.com 1.10,2013-05-06 06:24:00,
2013-05-06 00:39:00,60.6,15.0,29.76,NE,41,1.0,13.0,17,0.00,,,0.00,weatherlink.com 1.10,2013-05-06 06:39:00,
2013-05-06 00:54:00,60.3,16.0,29.75,ESE,105,0.0,10.0,18,0.00,,,0.00,weatherlink.com 1.10,2013-05-06 06:54:00,
2013-05-06 01:09:00,60.3,16.0,29.75,ESE,123,8.0,14.0,18,0.00,,,0.00,weatherlink.com 1.10,2013-05-06 07:09:00,
2013-05-06 01:24:00,60.2,16.0,29.75,East,84,6.0,11.0,18,0.00,,,0.00,weatherlink.com 1.10,2013-05-06 07:24:00,
2013-05-06 01:39:00,59.8,16.0,29.74,East,95,0.0,9.0,18,0.00,,,0.00,weatherlink.com 1.10,2013-05-06 07:39:00,
2013-05-06 01:54:00,59.7,16.0,29.74,East,90,4.0,10.0,18,0.00,,,0.00,weatherlink.com 1.10,2013-05-06 07:54:00,
2013-05-06 02:09:00,60.1,16.0,29.74,ESE,108,10.0,11.0,18,0.00,,,0.00,weatherlink.com 1.10,2013-05-06 08:09:00,
2013-05-06 02:24:00,60.2,18.0,29.73,ESE,120,2.0,12.0,19,0.00,,,0.00,weatherlink.com 1.10,2013-05-06 08:24:00,
2013-05-06 02:39:00,60.2,18.0,29.74,ESE,113,3.0,10.0,19,0.00,,,0.00,weatherlink.com 1.10,2013-05-06 08:39:00,
2013-05-06 02:54:00,60.0,16.0,29.74,ESE,108,2.0,13.0,18,0.00,,,0.00,weatherlink.com 1.10,2013-05-06 08:54:00,
2013-05-06 03:09:00,60.0,16.0,29.75,East,97,3.0,9.0,18,0.00,,,0.00,weatherlink.com 1.10,2013-05-06 09:09:00,
2013-05-06 03:24:00,59.8,17.0,29.74,ESE,110,4.0,8.0,19,0.00,,,0.00,weatherlink.com 1.10,2013-05-06 09:24:00,
2013-05-06 03:39:00,59.7,17.0,29.74,East,97,2.0,9.0,19,0.00,,,0.00,weatherlink.com 1.10,2013-05-06 09:39:00,
2013-05-06 03:55:00,59.4,17.0,29.74,East,99,8.0,9.0,19,0.00,,,0.00,weatherlink.com 1.10,2013-05-06 09:55:00,
2013-05-06 04:10:00,59.4,17.0,29.74,ESE,108,1.0,6.0,19,0.00,,,0.00,weatherlink.com 1.10,2013-05-06 10:10:00,
2013-05-06 04:25:00,59.5,18.0,29.73,ENE,69,0.0,3.0,20,0.00,,,0.00,weatherlink.com 1.10,2013-05-06 10:25:00,
2013-05-06 04:40:00,58.7,19.0,29.73,NW,312,0.0,1.0,21,0.00,,,0.00,weatherlink.com 1.10,2013-05-06 10:40:00,
2013-05-06 04:55:00,57.7,18.0,29.73,NNW,342,2.0,3.0,21,0.00,,,0.00,weatherlink.com 1.10,2013-05-06 10:55:00,
2013-05-06 05:10:00,57.2,17.0,29.72,NNE,26,0.0,1.0,21,0.00,,,0.00,weatherlink.com 1.10,2013-05-06 11:10:00,
2013-05-06 05:25:00,56.8,18.0,29.72,SE,139,0.0,0.0,22,0.00,,,0.00,weatherlink.com 1.10,2013-05-06 11:25:00,
2013-05-06 05:40:00,56.3,21.0,29.72,SE,125,0.0,0.0,25,0.00,,,0.00,weatherlink.com 1.10,2013-05-06 11:40:00,
2013-05-06 05:55:00,55.8,19.0,29.72,NNW,343,0.0,0.0,24,0.00,,,0.00,weatherlink.com 1.10,2013-05-06 11:55:00,
2013-05-06 06:10:00,56.2,21.0,29.71,ESE,122,0.0,0.0,25,0.00,,,0.00,weatherlink.com 1.10,2013-05-06 12:10:00,
2013-05-06 06:25:00,55.6,21.0,29.71,WSW,252,0.0,0.0,26,0.00,,,0.00,weatherlink.com 1.10,2013-05-06 12:25:00,
2013-05-06 06:40:00,54.9,21.0,29.72,West,259,0.0,0.0,27,0.00,,,0.00,weatherlink.com 1.10,2013-05-06 12:40:00,
2013-05-06 06:55:00,55.4,20.0,29.72,WNW,290,1.0,4.0,25,0.00,,,0.00,weatherlink.com 1.10,2013-05-06 12:55:00,
2013-05-06 07:10:00,56.0,20.0,29.73,SSE,163,0.0,2.0,25,0.00,,,0.00,weatherlink.com 1.10,2013-05-06 13:10:00,
2013-05-06 07:25:00,55.9,20.0,29.74,WSW,240,0.0,3.0,25,0.00,,,0.00,weatherlink.com 1.10,2013-05-06 13:25:00,
2013-05-06 07:40:00,56.5,22.0,29.74,NNE,19,0.0,0.0,26,0.00,,,0.00,weatherlink.com 1.10,2013-05-06 13:40:00,
2013-05-06 07:55:00,58.0,23.0,29.75,ENE,70,0.0,0.0,26,0.00,,,0.00,weatherlink.com 1.10,2013-05-06 13:55:00,
2013-05-06 08:10:00,58.6,23.0,29.75,West,267,0.0,1.0,25,0.00,,,0.00,weatherlink.com 1.10,2013-05-06 14:10:00,
2013-05-06 08:25:00,58.9,22.0,29.76,ESE,116,1.0,6.0,24,0.00,,,0.00,weatherlink.com 1.10,2013-05-06 14:25:00,
2013-05-06 08:40:00,59.4,21.0,29.76,SE,142,3.0,6.0,23,0.00,,,0.00,weatherlink.com 1.10,2013-05-06 14:40:00,
2013-05-06 08:55:00,60.8,23.0,29.76,East,96,0.0,8.0,23,0.00,,,0.00,weatherlink.com 1.10,2013-05-06 14:55:00,
2013-05-06 09:11:00,61.6,22.0,29.76,SE,137,7.0,7.0,22,0.00,,,0.00,weatherlink.com 1.10,2013-05-06 15:11:00,
2013-05-06 09:25:00,62.0,21.0,29.76,West,261,1.0,8.0,21,0.00,,,0.00,weatherlink.com 1.10,2013-05-06 15:25:00,
2013-05-06 09:40:00,63.3,24.0,29.76,WSW,245,5.0,7.0,22,0.00,,,0.00,weatherlink.com 1.10,2013-05-06 15:40:00,
2013-05-06 09:55:00,63.3,23.0,29.77,SW,218,4.0,7.0,21,0.00,,,0.00,weatherlink.com 1.10,2013-05-06 15:55:00,
2013-05-06 10:10:00,61.3,36.0,29.78,SW,229,3.0,15.0,39,0.00,,,0.00,weatherlink.com 1.10,2013-05-06 16:10:00,
2013-05-06 10:25:00,59.0,37.0,29.79,NNE,25,4.0,13.0,44,0.00,,,0.00,weatherlink.com 1.10,2013-05-06 16:25:00,
2013-05-06 10:40:00,59.0,39.0,29.79,WSW,245,3.0,11.0,48,0.00,,,0.00,weatherlink.com 1.10,2013-05-06 16:40:00,
2013-05-06 10:55:00,59.0,41.0,29.78,SSE,152,3.0,8.0,52,0.00,,,0.00,weatherlink.com 1.10,2013-05-06 16:55:00,
2013-05-06 11:10:00,60.8,40.0,29.78,South,188,1.0,9.0,47,0.00,,,0.00,weatherlink.com 1.10,2013-05-06 17:10:00,
2013-05-06 11:25:00,62.4,39.0,29.78,SW,228,3.0,7.0,43,0.00,,,0.00,weatherlink.com 1.10,2013-05-06 17:25:00,
2013-05-06 11:40:00,64.3,39.0,29.77,SSE,167,4.0,10.0,39,0.00,,,0.00,weatherlink.com 1.10,2013-05-06 17:40:00,
2013-05-06 11:55:00,65.2,39.0,29.77,South,184,2.0,10.0,39,0.00,,,0.00,weatherlink.com 1.10,2013-05-06 17:55:00,
2013-05-06 12:10:00,64.7,40.0,29.77,WNW,299,8.0,14.0,40,0.00,,,0.00,weatherlink.com 1.10,2013-05-06 18:10:00,
2013-05-06 12:25:00,65.4,40.0,29.77,SW,215,4.0,10.0,39,0.00,,,0.00,weatherlink.com 1.10,2013-05-06 18:25:00,
2013-05-06 12:40:00,64.2,38.0,29.77,SW,229,3.0,10.0,38,0.00,,,0.00,weatherlink.com 1.10,2013-05-06 18:40:00,
2013-05-06 12:56:00,66.4,38.0,29.77,NW,319,7.0,11.0,35,0.00,,,0.00,weatherlink.com 1.10,2013-05-06 18:56:00,
2013-05-06 13:11:00,66.8,37.0,29.76,SW,214,6.0,10.0,34,0.00,,,0.00,weatherlink.com 1.10,2013-05-06 19:11:00,
2013-05-06 13:26:00,67.1,37.0,29.76,WSW,244,2.0,9.0,33,0.00,,,0.00,weatherlink.com 1.10,2013-05-06 19:26:00,
2013-05-06 13:41:00,67.2,35.0,29.75,NW,319,6.0,10.0,31,0.00,,,0.00,weatherlink.com 1.10,2013-05-06 19:41:00,
2013-05-06 13:56:00,67.0,36.0,29.75,West,278,6.0,12.0,32,0.00,,,0.00,weatherlink.com 1.10,2013-05-06 19:56:00,
2013-05-06 14:11:00,67.0,38.0,29.75,West,278,3.0,8.0,34,0.00,,,0.00,weatherlink.com 1.10,2013-05-06 20:11:00,
2013-05-06 14:26:00,68.7,35.0,29.74,South,191,5.0,9.0,29,0.00,,,0.00,weatherlink.com 1.10,2013-05-06 20:26:00,
2013-05-06 14:41:00,68.5,35.0,29.74,West,278,2.0,13.0,29,0.00,,,0.00,weatherlink.com 1.10,2013-05-06 20:41:00,
2013-05-06 14:56:00,68.6,34.0,29.73,SW,233,6.0,7.0,28,0.00,,,0.00,weatherlink.com 1.10,2013-05-06 20:56:00,
2013-05-06 15:11:00,69.2,34.0,29.73,SW,221,3.0,8.0,27,0.00,,,0.00,weatherlink.com 1.10,2013-05-06 21:11:00,
2013-05-06 15:26:00,71.1,31.0,29.73,WSW,238,2.0,13.0,23,0.00,,,0.00,weatherlink.com 1.10,2013-05-06 21:26:00,
2013-05-06 15:41:00,71.3,30.0,29.72,WSW,256,2.0,10.0,22,0.00,,,0.00,weatherlink.com 1.10,2013-05-06 21:41:00,
2013-05-06 15:56:00,70.3,30.0,29.72,WNW,284,3.0,9.0,22,0.00,,,0.00,weatherlink.com 1.10,2013-05-06 21:56:00,
2013-05-06 16:11:00,70.9,31.0,29.72,East,100,3.0,7.0,23,0.00,,,0.00,weatherlink.com 1.10,2013-05-06 22:11:00,
2013-05-06 16:26:00,71.5,31.0,29.71,WSW,247,2.0,7.0,22,0.00,,,0.00,weatherlink.com 1.10,2013-05-06 22:26:00,
2013-05-06 16:41:00,70.5,30.0,29.71,WSW,238,2.0,8.0,22,0.00,,,0.00,weatherlink.com 1.10,2013-05-06 22:41:00,
2013-05-06 16:56:00,71.0,30.0,29.70,WSW,238,2.0,7.0,22,0.00,,,0.00,weatherlink.com 1.10,2013-05-06 22:56:00,
2013-05-06 17:11:00,70.6,29.0,29.70,NNE,33,3.0,5.0,21,0.00,,,0.00,weatherlink.com 1.10,2013-05-06 23:11:00,
2013-05-06 17:26:00,71.9,29.0,29.70,WSW,238,1.0,12.0,20,0.00,,,0.00,weatherlink.com 1.10,2013-05-06 23:26:00,
2013-05-06 17:41:00,71.6,28.0,29.70,NNW,332,1.0,6.0,20,0.00,,,0.00,weatherlink.com 1.10,2013-05-06 23:41:00,
2013-05-06 17:56:00,71.1,28.0,29.70,WSW,256,2.0,7.0,20,0.00,,,0.00,weatherlink.com 1.10,2013-05-06 23:56:00,
2013-05-06 18:11:00,72.6,27.0,29.70,West,276,3.0,7.0,18,0.00,,,0.00,weatherlink.com 1.10,2013-05-07 00:11:00,
2013-05-06 18:26:00,73.0,27.0,29.70,NNE,13,1.0,9.0,18,0.00,,,0.00,weatherlink.com 1.10,2013-05-07 00:26:00,
2013-05-06 18:41:00,72.1,28.0,29.70,WSW,255,1.0,5.0,19,0.00,,,0.00,weatherlink.com 1.10,2013-05-07 00:41:00,
2013-05-06 18:56:00,71.0,27.0,29.70,NNE,18,0.0,7.0,19,0.00,,,0.00,weatherlink.com 1.10,2013-05-07 00:56:00,
2013-05-06 19:11:00,69.7,27.0,29.70,WSW,248,5.0,8.0,20,0.00,,,0.00,weatherlink.com 1.10,2013-05-07 01:11:00,
2013-05-06 19:26:00,69.3,28.0,29.70,SW,219,1.0,6.0,21,0.00,,,0.00,weatherlink.com 1.10,2013-05-07 01:26:00,
2013-05-06 19:41:00,68.6,27.0,29.70,SSW,208,0.0,5.0,21,0.00,,,0.00,weatherlink.com 1.10,2013-05-07 01:41:00,
2013-05-06 19:56:00,68.0,28.0,29.71,ENE,67,0.0,2.0,22,0.00,,,0.00,weatherlink.com 1.10,2013-05-07 01:56:00,
2013-05-06 20:11:00,67.1,27.0,29.71,NNW,327,0.0,1.0,22,0.00,,,0.00,weatherlink.com 1.10,2013-05-07 02:11:00,
2013-05-06 20:26:00,66.7,28.0,29.72,SE,129,0.0,1.0,23,0.00,,,0.00,weatherlink.com 1.10,2013-05-07 02:26:00,
2013-05-06 20:41:00,66.6,28.0,29.72,South,184,1.0,4.0,23,0.00,,,0.00,weatherlink.com 1.10,2013-05-07 02:41:00,
2013-05-06 20:56:00,66.5,28.0,29.72,NNE,31,0.0,2.0,24,0.00,,,0.00,weatherlink.com 1.10,2013-05-07 02:56:00,
2013-05-06 21:11:00,66.4,28.0,29.73,West,278,0.0,2.0,24,0.00,,,0.00,weatherlink.com 1.10,2013-05-07 03:11:00,
2013-05-06 21:26:00,66.2,28.0,29.73,NNW,327,1.0,2.0,24,0.00,,,0.00,weatherlink.com 1.10,2013-05-07 03:26:00,
2013-05-06 21:41:00,66.2,28.0,29.74,WNW,292,1.0,2.0,24,0.00,,,0.00,weatherlink.com 1.10,2013-05-07 03:41:00,
2013-05-06 21:56:00,65.6,29.0,29.74,WSW,248,0.0,1.0,25,0.00,,,0.00,weatherlink.com 1.10,2013-05-07 03:56:00,
2013-05-06 22:11:00,65.4,29.0,29.75,North,358,0.0,1.0,25,0.00,,,0.00,weatherlink.com 1.10,2013-05-07 04:11:00,
2013-05-06 22:26:00,65.0,29.0,29.75,SW,231,1.0,3.0,26,0.00,,,0.00,weatherlink.com 1.10,2013-05-07 04:26:00,
2013-05-06 22:41:00,64.8,28.0,29.76,NNW,340,0.0,2.0,25,0.00,,,0.00,weatherlink.com 1.10,2013-05-07 04:41:00,
2013-05-06 22:56:00,64.4,29.0,29.77,NNW,340,0.0,0.0,26,0.00,,,0.00,weatherlink.com 1.10,2013-05-07 04:56:00,
2013-05-06 23:11:00,64.1,29.0,29.77,North,7,0.0,0.0,27,0.00,,,0.00,weatherlink.com 1.10,2013-05-07 05:11:00,
2013-05-06 23:26:00,63.6,30.0,29.77,East,81,0.0,0.0,28,0.00,,,0.00,weatherlink.com 1.10,2013-05-07 05:26:00,
2013-05-06 23:41:00,62.9,30.0,29.77,East,101,0.0,0.0,29,0.00,,,0.00,weatherlink.com 1.10,2013-05-07 05:41:00,
2013-05-06 23:56:00,61.9,34.0,29.77,East,101,0.0,0.0,36,0.00,,,0.00,weatherlink.com 1.10,2013-05-07 05:56:00,